COSMOS 828

Satellite information

Favourite Embed

Satellite Type and Status

PAYLOADIN ORBIT

Key statistics

Satellite COSMOS 828 at a glance.

Uptime

18035

Days in orbit

Revolutions

≈ 12.5

Per day

Orbit

LEO

Low Earth Orbit

Inclination

74.0

Latest

Satellite identification and parameters

Extended collection of information and parameters for COSMOS 828.

Object identification

Identified? True

Debris? False

Object name: COSMOS 828

International designator: 1976-054D

Object number (NORAD): 8892

Object ID (CCSDS): 8892

Country: COMMONWEALTH OF INDEPENDENT STATES (CIS)

Current information (Y/N): Y

RCS size: MEDIUM

Orbital parameters

Period: 115.109 minutes

Inclination: 74.0008 deg

SMA: 7838.521 km

Apoapsis: 1488.441 km

Periapsis: 1432.331 km

RAAN: 185.97 deg

Eccentricy: 0.00357913

Argument of periapsis: 26.2583 deg

Mean anomaly: 359.8145 deg

Mean motion: 12.50983563 rev/day

Mean motion (dot): -0.00000013 rev/day2

B* drag term: 0.000021714277 1/REarth

Two-line elements (TLE)

Creation date: Oct. 31, 2025, 3 a.m.

Reference frame: TEME

Reference center: EARTH

Epoch: Oct. 30, 2025, 3:27 p.m. UTC

TLE line 0: 0 COSMOS 828

TLE line 1: 1 08892U 76054D 25303.64404453 -.00000013 00000-0 21714-4 0 9996

TLE line 2: 2 08892 74.0008 185.9700 0035791 26.2583 359.8145 12.50983563254793

Live tracking on map

Real-time ground track for satellite COSMOS 828.

In-orbit conjunctions

A list of the most updated potential collisions computed for object COSMOS 828.

Target Orbit TCA Probability of collision Miss distance Type
TITAN 3D DEB SSO 2025-10-14 21:40:01 0.0002953137 66.0 (m) DEBRIS
THORAD DELTA 1 DEB MEO 2025-04-13 18:56:42 0.0001091022 282.0 (m) DEBRIS
COSMOS 1192 LEO 2025-03-06 21:27:49 0.0005968779 64.0 (m) PAYLOAD
DELTA 1 DEB SSO 2024-06-27 17:37:34 0.0001533023 245.0 (m) DEBRIS

Associated space launch

Military communications satellites

COSMOS 828 was lifted into orbit during the mission ‘Kosmos-3M | Strela-1M 113-120’, on board a Kosmos-3M space rocket.

The launch took place on June 15, 1976, 1:19 p.m. from 132/2.

For more information about the launch, click the button.

Launch to space Kosmos-3M | Strela-1M 113-120
Kosmos-3M | Strela-1M 113-120

Agency: N/A

Status: Launch Successful

Launch date: June 15, 1976, 1:19 p.m. UTC

Rocket: Kosmos-3M

Launch pad: 132/2

Location: Plesetsk Cosmodrome, Russian Federation

...

Latest news about this satellite

There are no fresh news available about this satellite. Check back as we update our databases every day.


Newsletter sign-up

Weekly statistics, charts and insights to help you stay on top of the space industry.